Location: Les Jeannots
(43.2262°N, 5.5774°E)
Time: 08:45:33
(UTC+00:00)

Cosmos 1400 Rocket - Pass Details

Date: 05 July 2020
Orbit: 521 x 568 km, 81.2° (Epoch: 05 August)

Event Time Altitude Azimuth Distance (km) Brightness Sun altitude
Rises 21:09:36 0° 344° (NNW) 2,718 7.7 -15.3°
Reaches altitude 10° 21:11:49 10° 339° (NNW) 1,812 6.7 -15.6°
Maximum altitude 21:15:40 49° 265° (W) 696 3.5 -16.0°
Enters shadow 21:18:10 19° 196° (SSW) 1,287 4.3 -16.2°
